Hourly Data Report for September 21, 2017

All times are specified in Local Standard Time (LST). Add 1 hour to adjust for Daylight Saving Time where and when it is observed.

EAST POINT (AUT)
PRINCE EDWARD ISLAND

46°27'36.000" N
61°59'18.000" W
7.70 m
8300418
71412
WEP

Download Data

Hourly Data (September 2017)
Hourly Data Report for September 21, 2017
Temp Definition
°C
Dew Point Temp Definition
°C
Rel Hum Definition
%
Wind Dir Definition
10's deg

Wind Spd Definition
km/h
Visibility Definition
km
Stn Press Definition
kPa
Hmdx Definition


Wind Chill Definition


Weather Definition


TIME
00:00 16.0 14.2 89 34 25   101.59     LegendNANA
01:00 15.7 14.2 91 34 24   101.61     LegendNANA
02:00 15.3 13.9 91 36 21   101.60     LegendNANA
03:00 15.0 13.6 92 35 17   101.63     LegendNANA
04:00 15.1 13.7 91 36 17   101.67     LegendNANA
05:00 15.4 12.4 82 36 22   101.69     LegendNANA
06:00 15.3 12.8 85 1 21   101.73     LegendNANA
07:00 16.4 12.9 80 3 25   101.79     LegendNANA
08:00 16.6 12.5 76 3 29   101.87     LegendNANA
09:00
10:00 16.8 10.9 68 2 29   101.99     LegendNANA
11:00 16.9 10.5 66 2 24   102.03     LegendNANA
12:00 16.8 10.1 65 2 23   102.04     LegendNANA
13:00 16.5 10.3 67 1 22   102.05     LegendNANA
14:00 16.3 9.8 66 1 24   102.08     LegendNANA
15:00 16.1 10.0 67 2 22   102.09     LegendNANA
16:00 15.6 9.3 66 2 20   102.12     LegendNANA
17:00 14.9 9.5 70 2 19   102.15     LegendNANA
18:00 14.3 9.5 73 2 20   102.16     LegendNANA
19:00 14.3 9.9 75 4 19   102.19     LegendNANA
20:00 14.3 9.5 73 3 24   102.20     LegendNANA
21:00 14.2 9.9 75 4 24   102.21     LegendNANA
22:00 14.3 9.7 74 4 21   102.23     LegendNANA
23:00 14.4 10.0 75 4 17   102.25     LegendNANA

Notes on Data Quality.

Legend

  • E = Estimated
  • M = Missing
  • NA = Not Available
  • ‡ = Partner data that is not subject to review by the National Climate Archives
Date modified: